Location: Cheyres
(46.8153°N, 6.7877°E)
Time: 04:28:02
(UTC+00:00)

SL-27 R/B - Pass Details

Date: 11 May 2021
Orbit: 418 x 468 km, 74.7° (Epoch: 18 June)

Event Time Altitude Azimuth Distance (km) Brightness Sun altitude
Rises 22:49:34 0° 349° (NNW) 2,382 7.5 -24.4°
Reaches altitude 10° 22:51:51 10° 2° (N) 1,516 6.1 -24.5°
Enters shadow 22:54:04 24° 42° (NE) 920 4.3 -24.6°
